Regional Weather Roundup
Issued by NWS

Home | Current Version | Previous Version | Text Only | Print | Product List | Glossary On
Versions: 1 2 3 4 5 6 7 8 9 10 11 12 13 14 15 16 17 18 19 20 21 22 23 24 25 26 27 28 29 30 31 32 33 34 35 36 37 38 39 40 41 42 43 44 45 46 47 48 49 50
000
ASUS45 KTFX 281319
RWRMT
MONTANA HOURLY WEATHER ROUNDUP
NATIONAL WEATHER SERVICE GREAT FALLS MT
719 AM MDT THU AUG 28 2014

NOTE: "FAIR" INDICATES FEW OR NO CLOUDS BELOW 12000 FEET WITH NO
SIGNIFICANT WEATHER AND/OR OBSTRUCTIONS TO VISIBILITY.

* THESE STATIONS ARE NOT UNDER NWS QUALITY CONTROL. THEY DO NOT
   REPORT WEATHER SUCH AS PRECIPITATION OR FOG.

MTZ001>007-043-281400-
WEST OF THE DIVIDE
CITY           SKY/WX    TMP DP  RH WIND       PRES   REMARKS
KALISPELL      CLEAR     46  45  96 CALM      30.00S
MISSOULA       CLEAR     52  45  77 CALM      30.09S
BUTTE          CLEAR     43  39  86 SE3       30.21R
MULLAN PASS    MOCLDY    57  43  60 VRB7      30.15S
* LINCOLN      N/A       39  38  96 N/A        N/A
* LOOKOUT PASS N/A       60  45  58 E2G7       N/A
* POLSON       N/A       60  42  52 SE2        N/A
* RONAN APT    CLEAR     54  46  74 N/A        N/A
* SEELEY LAKE  N/A       40  39  96 NE2        N/A
* THOMP F APT  CLEAR     52  46  80 N/A        N/A
$$

MTZ008-052>055-281400-
SOUTHWEST MONTANA
CITY           SKY/WX    TMP DP  RH WIND       PRES   REMARKS
BOZEMAN        CLEAR     48  43  83 SE7       30.15R
DILLON         CLEAR     48  43  83 SW8       30.19R
W YELLOWSTONE  CLEAR     32  32 100 CALM      30.32R
* THREE FORKS  CLEAR     46  28  50 N/A        N/A
* BOULDER HILL N/A       54  37  53 S8         N/A
* MONIDA PASS  N/A       43  38  83 N/A        N/A
* RAYNOLDS PAS N/A       44  27  51 SE8G13     N/A
* WHITEHALL    N/A       49  44  83 N5         N/A
* WISE RIVER   N/A       40  38  93 W3         N/A
$$

MTZ009>010-012-014-046-048-049-054-281400-
EAST SLOPES AND CENTRAL MONTANA
CITY           SKY/WX    TMP DP  RH WIND       PRES   REMARKS
CUT BANK       PTCLDY    55  45  69 W7        29.99S
GREAT FALLS    CLEAR     57  46  67 VRB3      30.01R
HELENA         CLEAR     54  46  74 CALM      30.09R
MALMSTROM AFB  CLEAR     63  46  54 W9        30.02R
* CONRAD       PTCLDY    54  48  80 S7         N/A
* EAST GLACIER N/A       59  43  56 NW10       N/A
* MONARCH      N/A       54  39  57 S10        N/A
* PENDROY      N/A       62  43  50 W4G10      N/A
* ROGERS PASS  N/A       59  39  48 SE2        N/A
* SAINT MARY   N/A       61  41  48 S4G9       N/A
* SWEET GRASS  N/A       63  43  48 W12        N/A
* WHITE SULPH  N/A       46  40  80 NW2G10     N/A
$$

MTZ011-013-016-021-035-040-045-047-050-051-281400-
NORTH CENTRAL MONTANA
CITY           SKY/WX    TMP DP  RH WIND       PRES   REMARKS
HAVRE          CLEAR     55  50  83 SW10      29.92S
LEWISTOWN      CLEAR     52  45  77 SE5       30.05R
* CHINOOK      CLEAR     55  54  96 CALM      29.92S
* FORT BENTON  CLEAR     61  48  62 SW8       29.97S
* CHESTER      N/A       50  46  86 N/A        N/A
* DENTON       N/A       52  47  83 SE8        N/A
* GEYSER       N/A       60  43  54 NW4G12     N/A
* JUDITH GAP   N/A       59  45  60 E1         N/A
* LOMA         N/A       57  50  78 SE1        N/A
$$

MTZ017>020-022>027-061-062-281400-
NORTHEAST MONTANA
CITY           SKY/WX    TMP DP  RH WIND       PRES   REMARKS
GLASGOW        CLEAR     57  54  90 SE6       29.90R
GLENDIVE       CLEAR     57  57 100 S6        29.95S
JORDAN         CLEAR     55  52  90 W5        29.94S
SIDNEY         CLEAR     57  57 100 S5        29.92S
WOLF POINT     CLEAR     54  50  86 CALM      29.90S
* BEAVER HILL  N/A       60  56  87 S8         N/A
* CIRCLE       N/A       57  52  83 N/A        N/A
* LINDSAY DVD  N/A       61  50  67 NW6        N/A
* NAVAJO       N/A       61  48  62 W11        N/A
$$

MTZ028>042-056>058-281400-
SOUTHCENTRAL AND SOUTHEAST MONTANA
CITY           SKY/WX    TMP DP  RH WIND       PRES   REMARKS
BAKER          PTCLDY    54  54 100 SE5       29.98S
BILLINGS       FAIR      61  46  58 SW15      30.04S
LIVINGSTON     CLEAR     52  43  72 NW15G21   30.12S
MILES CITY     CLEAR     55  54  96 SW7       29.96S
* LAUREL APT   CLEAR     52  45  77 N/A        N/A
* ROUNDUP APT  CLEAR     55  46  72 SW8        N/A
* ALZADA       N/A       56  55  96 NW2        N/A
* HYSHAM       N/A       61  47  60 W8         N/A
* LAME DEER    N/A       63  48  58 W11        N/A
* REED POINT   N/A       49  47  93 W3         N/A
* ROSCOE HILL  N/A       61  29  30 S9         N/A
$$

REGIONAL REPORTS...DAKOTAS
CITY           SKY/WX    TMP DP  RH WIND       PRES   REMARKS
WILLISTON      CLEAR     57  55  93 SW3       29.90S
DICKINSON      MOCLDY    55  54  96 S5        29.94S
BEACH          N/A       55  55 100 S5        29.96S
CROSBY         CLEAR     59  59 100 SW10      29.88S
TIOGA          CLEAR     59  59 100 S5        29.94S
WATFORD CITY   CLEAR     57  57 100 CALM      29.90S
BISMARCK       CLOUDY    63  61  93 CALM      29.96R
GRAND FORKS    CLOUDY    63  61  93 S12       29.96F
FARGO          CLOUDY    66  59  78 SE13      29.99S
RAPID CITY     CLOUDY    63  59  87 W5        29.99F
$$

REGIONAL REPORTS...WYOMING/IDAHO/WASHINGTON
CITY           SKY/WX    TMP DP  RH WIND       PRES   REMARKS
GILLETTE       MOCLDY    59  54  84 CALM      30.06S
SHERIDAN       PTCLDY    52  45  77 CALM      30.06S
CODY           CLEAR     57  45  64 CALM      30.15S
YELLOWSTONE LA CLEAR     36  34  92 NW3       30.40R
SALMON         CLEAR     46  45  96 CALM      30.19R
MULLAN PASS    MOCLDY    57  43  60 VRB7      30.15S
SAND POINT     CLEAR     52  52 100 CALM      29.95R
SPOKANE        FAIR      63  52  68 S10       29.97R
$$

REGIONAL REPORTS...ALBERTA
CITY           SKY/WX    TMP DP  RH WIND       PRES   REMARKS
CALGARY        MOCLDY    52  48  86 NW6       30.02S
LETHBRIDGE     PTCLDY    54  50  86 NW6       30.00R
MEDICINE HAT   MOCLDY    55  52  90 W9        29.90R
EDMONTON       MOCLDY    52  50  93 W8        29.96R
WATERTON GATE  N/A       54  48  80 NE12G18    N/A
CARDSTON       N/A       52  50  93 N5         N/A
MILK RIVER     N/A       54  50  86 N16        N/A
$$

REGIONAL REPORTS...SASKATCHEWAN
CITY           SKY/WX    TMP DP  RH WIND       PRES   REMARKS
SWIFT CURRENT  CLEAR     54  50  86 SW9       29.85R
MOOSE JAW      FAIR      57  54  90 N2        29.84S
REGINA         N/A       52  52 100 W6        29.84S
VAL MARIE      N/A       50  48  93 NE1        N/A
ASSINIBOIA     N/A       55  50  83 S8         N/A
CORONACH       N/A       54  50  86 SE5        N/A

$$



USA.gov is the U.S. government's official web portal to all federal, state and local government web resources and services.